Showing default

YAOGAN-31 B, 43276

Orbit data source: Space-Track

YAOGAN-31 B, 43276 is a payload satellite owned by PLA SSF (CN) in LEO that was launched on Tue, 10 Apr 2018 UTC via a CHANG ZHENG 4C launch vehicle from the Jiuquan Satellite Launch Center, China (JSC). Payload-class satellites include a variety of spacecraft equipped with specific instruments for various scientific and technological missions. These include communications satellites like Starlink; space stations such as the ISS; scientific satellites like the Hubble; Earth observation satellites from companies like Planet Labs, Umbra, and HawkEye 360; GPS; miniature CubeSats for education and research; and military/defense satellites.

Loading next visibility...
Identifier
43276, 2018-034B
Orbit
LEO
Country
Flag of CNCN / PRC
Related business
Manufacturer
DFH
Mission
Operational Defense Sigint
Bus & Motor
Unknown
Mass
~500 kg wet, ~500 kg dry
Launch date (UTC)
2018-04-10 (8 years ago)
Launch vehicle
CHANG ZHENG 4C
Launch site
Jiuquan Satellite Launch Center, China (JSC)
Object type
Payload
Rocket body
Debris
Shape & HBR
Box + 2 Pan, 0.5 m
Radar Cross Section
0.446 m², Large (>1 m²)

Expand to show TLE details & history
Last TLE update: 1 day ago

TLE from 1 day ago
0 YAOGAN-31 B
1 43276U 18034B   26172.52371936 -.00000006  00000-0  11342-3 0  9993
2 43276  63.3951  80.1298 0275813   7.4280 353.0704 13.45458411402808
Epoch: 2026-06-21T12:34Z
TLE epoch observation values (Epoch: 2026-06-21T12:34:09.352Z)
Latitude
-0.0001°
Longitude
-18.13198°
Altitude
886.399 km
Speed
7.51 km/s
True Right ascension
05h 20m 31s
True Declination
0° 00' 00"
Sunlit
Object was in daylight at epoch
Visualization orbit readout
Latitude
Unknown
Longitude
Unknown
Altitude
Unknown
Speed
Unknown
Apparent Right ascension
Unknown
Apparent Declination
Unknown
Sunlit
N/A
Visualization observer readout
Local Sidereal Time
00:50:42
Azimuth
Unknown
Elevation
Unknown
Doppler factor
Unknown
Orbital elements
Apogee altitude
1,293.765 km
Perigee altitude
881.922 km
Semi-major axis
7,465.981 km
Eccentricity
0.02758
Inclination
63.3951°
RAAN
80.1298°
Arg. of periapsis
7.428°
True anomaly
352.67559°
Mean anomaly
353.0704°
Eccentric anomaly
352.87437°
Mean motion
3.36444 °/min
Orbital period
107 mins
BSTAR
0.00011342
Loading maneuver chart data...
Computing Atmospheric mass density...
Loading historical data...
Loading historical data...
Loading historical data...
Loading historical data...
Loading historical data...
Loading historical data...
Loading historical data...

Documentation

Showing up to 5 results
|